{"data":{"norad_id":66732,"epoch":"2026-09-20T03:19:32.080800Z","epoch_age_seconds":49461,"freshness":"FRESH","line1":"1 66732U 25276BU  26263.13856575  .00004775  00000+0  21995-3 0  9996","line2":"2 66732  97.4093 334.9454 0004527  65.6249 294.5459 15.20757594 44843","mean_motion":15.20757594,"eccentricity":0.0004527,"inclination_deg":97.4093,"raan_deg":334.9454,"arg_perigee_deg":65.6249,"mean_anomaly_deg":294.5459,"bstar":0.00021995,"rev_number":4484,"period_min":94.689647165425,"perigee_km":500.43882699655,"apogee_km":506.66951018059,"semimajor_km":6881.6911685886,"source":"CELESTRAK","updated_at":"2026-09-20T09:00:34.752952Z"}}